Weather History for Meacham, OR

Change the Weather History Date:

Thursday, March 21, 2013

  Actual Average Record
Temperature  
Mean Temperature 30 °F -  
Max Temperature 36 °F 45 °F 62 °F (1998)
Min Temperature 26 °F 24 °F 17 °F (2001)
Degree Days  
Heating Degree Days 36    
Moisture  
Dew Point 22 °F    
Average Humidity 75    
Maximum Humidity 93    
Minimum Humidity 59    
Precipitation  
Precipitation 0.12 in - - ()
Sea Level Pressure  
Sea Level Pressure 30.05 in    
Wind  
Wind Speed 5 mph (West)    
Max Wind Speed 12 mph    
Max Gust Speed 26 mph    
Visibility 5 miles    
Events Fog , Snow    
Averages and records for this station are not official NWS values.
T = Trace of Precipitation, MM = Missing Value Source: NWS Daily Summary

Daily Weather History Graph

Daily Weather History Graph

Search for Another Location

Airport:

Trip Planner

Search our weather history database for the weather conditions in past years. The results will help you decide how hot, cold, wet, or windy it might be!

Date:

Astronomy

Mar. 21, 2013 Rise Set
Actual Time 6:54 AM PDT 7:08 PM PDT
Civil Twilight 6:24 AM PDT 7:37 PM PDT
Nautical Twilight 5:49 AM PDT 8:12 PM PDT
Astronomical Twilight 5:14 AM PDT 8:48 PM PDT
Moon 1:28 PM PDT (3/21) 3:33 AM PDT (3/21)
Length of Visible Light 13h 12m
Length of Day
12h 13m
Waxing Gibbous, 69% of the Moon is Illuminated
Mar 21
Waxing Gibbous
Mar 27
Full
Apr 2
Last Quarter
Apr 10
New
Apr 18
First Quarter

Hourly Weather History & Observations

Time (PDT) Temp. Windchill Dew Point Humidity Pressure Visibility Wind Dir Wind Speed Gust Speed Precip Events Conditions
12:56 AM 30.0 °F 23.2 °F 24.1 °F 79% 29.95 in 10.0 mi Variable 6.9 mph - 0.00 in   Overcast
1:21 AM 28.4 °F 21.2 °F 21.2 °F 74% 29.92 in 10.0 mi Variable 6.9 mph 20.7 mph N/A   Overcast
1:42 AM 28.4 °F 23.3 °F 19.4 °F 69% 29.93 in 10.0 mi Variable 4.6 mph - N/A   Overcast
1:56 AM 28.0 °F 22.8 °F 19.0 °F 69% 30.01 in 10.0 mi Variable 4.6 mph - N/A   Overcast
2:56 AM 28.0 °F 20.0 °F 19.9 °F 72% 30.04 in 10.0 mi West 8.1 mph - N/A   Overcast
3:56 AM 27.0 °F - 18.0 °F 69% 30.05 in 10.0 mi Calm Calm - N/A   Overcast
4:56 AM 28.0 °F 22.8 °F 18.0 °F 66% 30.08 in 10.0 mi Variable 4.6 mph - N/A   Overcast
5:17 AM 26.6 °F 20.0 °F 17.6 °F 69% 30.01 in 10.0 mi Variable 5.8 mph - N/A   Mostly Cloudy
5:27 AM 26.6 °F 21.2 °F 17.6 °F 69% 30.01 in 10.0 mi Variable 4.6 mph - N/A   Mostly Cloudy
5:56 AM 27.0 °F 21.6 °F 18.0 °F 69% 30.08 in 10.0 mi Variable 4.6 mph - N/A   Overcast
6:56 AM 28.0 °F - 18.0 °F 66% 30.10 in 10.0 mi Calm Calm - N/A   Overcast
7:49 AM 28.4 °F 23.3 °F 19.4 °F 69% 30.02 in 2.5 mi Variable 4.6 mph - 0.00 in Snow Light Snow
7:56 AM 28.0 °F - 19.9 °F 72% 30.10 in 1.5 mi Calm Calm - 0.00 in Snow Light Snow
8:04 AM 28.4 °F 23.3 °F 19.4 °F 69% 30.03 in 3.0 mi Variable 4.6 mph - 0.00 in Snow Light Snow
8:34 AM 28.4 °F 22.2 °F 19.4 °F 69% 30.02 in 1.8 mi Variable 5.8 mph - 0.01 in Snow Light Snow
8:56 AM 28.0 °F 24.2 °F 21.0 °F 75% 30.11 in 0.8 mi Variable 3.5 mph - 0.01 in Snow Light Snow
9:05 AM 28.4 °F 23.3 °F 19.4 °F 69% 30.04 in 1.8 mi Variable 4.6 mph - 0.00 in Snow Light Snow
9:11 AM 28.4 °F - 19.4 °F 69% 30.04 in 3.0 mi Calm Calm - 0.00 in Snow Light Snow
9:21 AM 28.4 °F 23.3 °F 21.2 °F 74% 30.04 in 1.8 mi Variable 4.6 mph - 0.00 in Snow Light Snow
9:33 AM 28.4 °F 24.6 °F 21.2 °F 74% 30.05 in 0.5 mi WSW 3.5 mph - 0.01 in Snow Snow
9:38 AM 28.4 °F 21.2 °F 23.0 °F 80% 30.05 in 0.2 mi Variable 6.9 mph - 0.01 in Snow Heavy Snow
9:56 AM 28.0 °F 21.7 °F 24.1 °F 85% 30.13 in 0.5 mi Variable 5.8 mph - 0.03 in Fog , Snow Snow
10:23 AM 28.4 °F 23.3 °F 23.0 °F 80% 30.04 in 1.8 mi Variable 4.6 mph - 0.01 in Snow Light Snow
10:40 AM 30.2 °F 25.4 °F 23.0 °F 75% 30.04 in 3.0 mi Variable 4.6 mph - 0.01 in Snow Light Snow
10:56 AM 30.0 °F 22.4 °F 21.9 °F 72% 30.12 in 9.0 mi West 8.1 mph - 0.01 in Snow Light Snow
11:11 AM 30.2 °F 23.4 °F 21.2 °F 69% 30.04 in 6.0 mi Variable 6.9 mph - 0.00 in Snow Light Snow
11:56 AM 32.0 °F 24.2 °F 19.0 °F 59% 30.12 in 10.0 mi West 9.2 mph 26.5 mph 0.00 in   Mostly Cloudy
12:19 PM 32.0 °F 23.0 °F 21.2 °F 64% 30.04 in 1.5 mi West 11.5 mph 23.0 mph 0.00 in Snow Light Snow
12:24 PM 28.4 °F 20.4 °F 24.8 °F 86% 30.05 in 0.2 mi West 8.1 mph 23.0 mph 0.00 in Snow Heavy Snow
12:37 PM 30.2 °F 25.4 °F 24.8 °F 80% 30.04 in 2.0 mi Variable 4.6 mph - 0.01 in Snow Light Snow
12:41 PM 30.2 °F 26.7 °F 24.8 °F 80% 30.04 in 5.0 mi Variable 3.5 mph - 0.01 in Snow Light Snow
12:56 PM 32.0 °F 24.8 °F 23.0 °F 69% 30.12 in 9.0 mi West 8.1 mph - 0.02 in   Overcast
1:10 PM 33.8 °F 29.6 °F 24.8 °F 70% 30.04 in 2.5 mi Variable 4.6 mph - 0.00 in Snow Light Snow
1:19 PM 33.8 °F 29.6 °F 21.2 °F 60% 30.04 in 8.0 mi Variable 4.6 mph - 0.00 in   Overcast
1:56 PM 33.1 °F 26.1 °F 21.9 °F 64% 30.10 in 10.0 mi West 8.1 mph 23.0 mph 0.00 in   Overcast
2:24 PM 32.0 °F 28.7 °F 23.0 °F 69% 30.02 in 1.8 mi Variable 3.5 mph - 0.01 in Snow Light Snow
2:31 PM 30.2 °F 24.3 °F 24.8 °F 80% 30.02 in 0.8 mi Variable 5.8 mph - 0.04 in Snow Light Snow
2:47 PM 30.2 °F 24.3 °F 26.6 °F 86% 30.02 in 2.0 mi Variable 5.8 mph - 0.06 in Snow Light Snow
2:58 PM 32.0 °F 25.6 °F 26.6 °F 80% 30.02 in 3.0 mi Variable 6.9 mph - 0.00 in Snow Light Snow
3:56 PM 30.9 °F 25.2 °F 26.1 °F 82% 30.11 in 5.0 mi Variable 5.8 mph - 0.00 in Snow Light Snow
4:01 PM 30.2 °F 25.4 °F 26.6 °F 86% 30.02 in 1.8 mi Variable 4.6 mph - 0.00 in Snow Light Snow
4:10 PM 30.2 °F 24.3 °F 26.6 °F 86% 30.01 in 3.0 mi Variable 5.8 mph - 0.00 in Snow Light Snow
4:50 PM 32.0 °F 24.2 °F 24.8 °F 75% 30.01 in 1.8 mi West 9.2 mph - 0.01 in Snow Light Snow
4:56 PM 30.0 °F - 25.0 °F 82% 30.09 in 0.8 mi Calm Calm - 0.01 in Snow Light Snow
5:01 PM 30.2 °F 26.7 °F 24.8 °F 80% 30.01 in 1.2 mi Variable 3.5 mph - 0.00 in Snow Light Snow
5:04 PM 30.2 °F 26.7 °F 23.0 °F 75% 30.00 in 4.0 mi Variable 3.5 mph - 0.00 in Snow Light Snow
5:56 PM 33.1 °F 26.1 °F 19.9 °F 59% 30.09 in 10.0 mi WNW 8.1 mph - 0.00 in   Clear
6:56 PM 32.0 °F 26.4 °F 21.9 °F 66% 30.08 in 10.0 mi WNW 5.8 mph - N/A   Overcast
7:05 PM 32.0 °F 27.5 °F 21.2 °F 64% 30.00 in 10.0 mi Variable 4.6 mph - N/A   Mostly Cloudy
7:12 PM 32.0 °F 26.4 °F 23.0 °F 69% 30.01 in 10.0 mi Variable 5.8 mph - N/A   Overcast
7:56 PM 30.0 °F 25.2 °F 21.9 °F 72% 30.10 in 10.0 mi Variable 4.6 mph - N/A   Overcast
8:56 PM 30.0 °F 22.4 °F 21.0 °F 69% 30.10 in 10.0 mi West 8.1 mph 16.1 mph N/A   Overcast
9:29 PM 28.4 °F 23.3 °F 21.2 °F 74% 30.02 in 10.0 mi Variable 4.6 mph 20.7 mph N/A   Overcast
9:56 PM 27.0 °F 19.5 °F 23.0 °F 85% 30.12 in 1.5 mi Variable 6.9 mph 21.9 mph 0.01 in Snow Light Snow
10:01 PM 26.6 °F 19.1 °F 23.0 °F 86% 30.03 in 0.8 mi Variable 6.9 mph 21.9 mph 0.00 in Snow Light Snow
10:34 PM 26.6 °F 22.6 °F 23.0 °F 86% 30.02 in 2.0 mi Variable 3.5 mph - 0.01 in Snow Light Snow
10:45 PM 26.6 °F 22.6 °F 23.0 °F 86% 30.02 in 1.8 mi Variable 3.5 mph - 0.02 in Snow Light Snow
10:56 PM 27.0 °F 21.6 °F 23.0 °F 85% 30.11 in 2.0 mi Variable 4.6 mph - 0.02 in Snow Light Snow
11:06 PM 26.6 °F 19.1 °F 24.8 °F 93% 30.02 in 1.8 mi Variable 6.9 mph - 0.00 in Snow Light Snow
11:10 PM 26.6 °F 19.1 °F 23.0 °F 86% 30.03 in 3.0 mi Variable 6.9 mph - 0.00 in Snow Light Snow
11:45 PM 26.6 °F 16.8 °F 23.0 °F 86% 30.02 in 1.8 mi West 10.4 mph - 0.00 in Snow Light Snow
11:56 PM 27.0 °F 19.5 °F 23.0 °F 85% 30.10 in 1.5 mi Variable 6.9 mph - 0.01 in Snow Light Snow